STARLINK-34343 DEB, 69729

Orbit data source: Space-Track

STARLINK-34343 DEB, 69729 is space debris in SSO originally from a launch on Tue, 27 May 2025 UTC launched from the Air Force Western Test Range (AFWTR). Debris objects in space refer to the collection of defunct objects orbiting the Earth. Examples of debris include non-operational satellites, rocket bodies, and fragments generated from explosions, collisions, or faulty payload assembly.

Not visible in the next 10 days
Identifier
69729, 2025-112AA
Orbit
SSO
Country
Flag of USUS
Related business
Manufacturer
SpaceX/Seattle
Mission
Decayed spacecraft
Bus & Motor
Unknown
Mass
Unknown
Launch date (UTC)
2025-05-27 (1 year ago)
Launch vehicle
Unknown
Launch site
Air Force Western Test Range (AFWTR)
Object type
Payload
Rocket body
Debris
Shape & HBR
Unknown shape, 1.1 m
Radar Cross Section
Medium (>0.1 m² and <1 m²)

Expand to show TLE details & history
Last TLE update: 2 weeks ago

TLE from 2 weeks ago
0 STARLINK-34343 DEB
1 69729U 25112AA  26176.67516303  .07376444  78813-1  37037-1 0  9991
2 69729  97.5913 230.1636 0026366 256.2010 103.6326 15.86559319 59691
Epoch: 2026-06-25T16:12Z
TLE epoch observation values (Epoch: 2026-06-25T16:12:14.085Z)
Latitude
-0.00005°
Longitude
73.2903°
Altitude
319.314 km
Speed
7.714 km/s
True Right ascension
15h 20m 39s
True Declination
0° 00' 00"
Sunlit
Object was in full shadow at epoch
Visualization orbit readout
Latitude
Unknown
Longitude
Unknown
Altitude
Unknown
Speed
Unknown
Apparent Right ascension
Unknown
Apparent Declination
Unknown
Sunlit
N/A
Visualization observer readout
Local Sidereal Time
21:01:11
Azimuth
Unknown
Elevation
Unknown
Doppler factor
Unknown
Orbital elements
Apogee altitude
326.454 km
Perigee altitude
291.193 km
Semi-major axis
6,686.961 km
Eccentricity
0.00264
Inclination
97.5913°
RAAN
230.1636°
Arg. of periapsis
256.201°
True anomaly
103.92599°
Mean anomaly
103.6326°
Eccentric anomaly
103.77932°
Mean motion
3.96917 °/min
Orbital period
90.7 mins
BSTAR
0.037037
Loading maneuver chart data...
Computing Atmospheric mass density...
Loading historical data...
Loading historical data...
Loading historical data...
Loading historical data...
Loading historical data...
Loading historical data...
Loading historical data...

Documentation

Showing up to 5 results
|